M I D A S
Marine Information and Data Acquisition System
Tripno 1863 of the Zeeleeuw from 2010-04-22 06:42:15 to 2010-04-22 15:06:58
Back to CruiseResearch ActivitiesStationsMapUnderway DataData graphs

EquipmentUnitsComments
TimeDGPSUTC
LatitudeDGPSDM.mWGS84
LongitudeDGPSDM.mWGS84
SpeedMeteo Stationm/sRelative wind speed
DirectionMeteo StationdegRelative wind direction
TemperatureMeteo Stationdeg CelciusAir temperature
PressureMeteo StationPaAtmospheric pressure
HumidityMeteo Station%Relative humidity
Missing or incorrect values are displayed as -999
Metereological data collected by the RV Zeeleeuw from 2010-04-22 06:23:39 to 2010-04-22 15:15:14
Time Latitude Longitude Speed Direction Temperature Pressure Humidity
2010-04-22 06:24 51°13.678 2°55.89 -999 23 5.5 101970 31
2010-04-22 06:25 51°13.702 2°55.786 -999 23 5.5 101970 32
2010-04-22 06:26 51°13.724 2°55.721 0.1 349 5.5 101970 32
2010-04-22 06:27 51°13.776 2°55.669 -999 24 5.6 101970 31
2010-04-22 06:28 51°13.858 2°55.618 0.1 23 5.6 101980 30
2010-04-22 06:29 51°13.921 2°55.628 1.1 22 5.6 101980 31
2010-04-22 06:30 51°13.949 2°55.657 0.3 268 5.7 101970 31
2010-04-22 06:31 51°13.983 2°55.574 -999 334 5.7 101980 31
2010-04-22 06:32 51°14.088 2°55.475 1.7 343 5.7 101980 30
2010-04-22 06:33 51°14.204 2°55.37 1.7 332 5.7 101980 31
2010-04-22 06:34 51°14.318 2°55.247 1.8 339 5.8 101970 32
2010-04-22 06:35 51°14.453 2°55.095 2.5 345 5.8 101980 32
2010-04-22 06:36 51°14.604 2°54.939 2.5 350 5.7 101970 30
2010-04-22 06:37 51°14.748 2°54.741 3.5 342 5.7 101980 31
2010-04-22 06:38 51°14.923 2°54.515 3.8 342 5.7 101970 31
2010-04-22 06:39 51°15.117 2°54.317 4.4 343 5.8 101970 30
2010-04-22 06:40 51°15.312 2°54.109 3.6 346 5.7 101970 30
2010-04-22 06:41 51°15.503 2°53.911 2.5 344 5.8 101970 30
2010-04-22 06:42 51°15.694 2°53.709 4.2 344 5.7 101970 29
2010-04-22 06:43 51°15.877 2°53.491 2.2 338 5.8 101960 32
2010-04-22 06:44 51°16.07 2°53.293 3.2 346 5.8 101970 30
2010-04-22 06:45 51°16.289 2°53.156 4.1 347 5.8 101970 31
2010-04-22 06:46 51°16.512 2°53.028 3.5 344 5.9 101970 31
2010-04-22 06:47 51°16.734 2°52.893 4.1 342 5.9 101970 32
2010-04-22 06:48 51°16.944 2°52.75 4.4 344 5.9 101970 30
2010-04-22 06:49 51°17.158 2°52.599 5.6 286 5.9 101980 31
2010-04-22 06:50 51°17.396 2°52.561 4.5 280 6 101970 31
2010-04-22 06:51 51°17.637 2°52.555 5.5 279 6 101980 30
2010-04-22 06:52 51°17.877 2°52.542 4.4 286 6 101980 29
2010-04-22 06:53 51°18.117 2°52.526 5.7 286 6 101980 30
2010-04-22 06:54 51°18.357 2°52.502 5.8 281 6.1 101960 30
2010-04-22 06:55 51°18.595 2°52.479 5.7 285 6.1 101980 30
2010-04-22 06:56 51°18.833 2°52.455 7.9 281 6.1 101970 32
2010-04-22 06:57 51°19.07 2°52.431 9.8 280 6.2 101960 32
2010-04-22 06:58 51°19.307 2°52.405 8 279 6.3 101960 32
2010-04-22 06:59 51°19.547 2°52.399 9.6 281 6.2 101960 30
2010-04-22 07:00 51°19.789 2°52.412 8.5 282 6.3 101970 29
2010-04-22 07:01 51°20.032 2°52.424 7.3 281 6.3 101960 30
2010-04-22 07:02 51°20.274 2°52.436 7.6 283 6.3 101960 31
2010-04-22 07:03 51°20.514 2°52.442 8.1 280 6.2 101960 29
2010-04-22 07:04 51°20.751 2°52.474 8.2 285 6.2 101970 31
2010-04-22 07:05 51°20.986 2°52.549 8.8 286 6.2 101980 30
2010-04-22 07:06 51°21.221 2°52.626 9.4 284 6.3 101970 30
2010-04-22 07:07 51°21.458 2°52.703 8.2 283 6.3 101960 31
2010-04-22 07:08 51°21.693 2°52.778 8 285 6.3 101940 29
2010-04-22 07:09 51°21.931 2°52.817 7.9 285 6.3 101960 32
2010-04-22 07:10 51°22.17 2°52.798 8 280 6.3 101980 32
2010-04-22 07:11 51°22.407 2°52.755 9 345 6.2 101970 30
2010-04-22 07:12 51°22.643 2°52.716 7.8 344 6.2 101960 31
2010-04-22 07:13 51°22.884 2°52.68 7.8 287 6.2 101980 31
2010-04-22 07:14 51°23.125 2°52.648 7.3 283 6.2 101980 30
2010-04-22 07:15 51°23.366 2°52.611 7.6 280 6.2 101970 30
2010-04-22 07:16 51°23.611 2°52.58 7.7 346 6.2 101970 30
2010-04-22 07:17 51°23.854 2°52.548 8.5 348 6.2 101980 30
2010-04-22 07:18 51°24.098 2°52.518 7.7 347 6.2 101970 31
2010-04-22 07:19 51°24.341 2°52.487 7.4 279 6.2 101970 30
2010-04-22 07:20 51°24.583 2°52.456 8 346 6.2 101980 30
2010-04-22 07:21 51°24.824 2°52.427 6.8 348 6.1 101990 31
2010-04-22 07:22 51°25.065 2°52.398 7 283 6.2 101990 32
2010-04-22 07:23 51°25.306 2°52.368 7.7 280 6.2 101990 32
2010-04-22 07:24 51°25.55 2°52.33 7.5 280 6.2 101980 30
2010-04-22 07:25 51°25.79 2°52.289 6.1 346 6.2 102000 31
2010-04-22 07:26 51°26.029 2°52.256 7.1 279 6.2 101970 30
2010-04-22 07:27 51°26.274 2°52.256 7.5 285 6.2 102000 32
2010-04-22 07:28 51°26.519 2°52.258 7.1 286 6.2 101980 31
2010-04-22 07:29 51°26.762 2°52.259 6.8 285 6.3 101980 31
2010-04-22 07:30 51°27.004 2°52.261 7.9 280 6.2 101970 30
2010-04-22 07:31 51°27.246 2°52.264 8.6 281 6.2 101970 29
2010-04-22 07:32 51°27.488 2°52.268 7.9 285 6.2 101980 30
2010-04-22 07:33 51°27.728 2°52.272 7.8 283 6.2 101980 29
2010-04-22 07:34 51°27.968 2°52.266 8.2 281 6.2 101980 30
2010-04-22 07:35 51°28.209 2°52.262 7.8 281 6.2 101990 29
2010-04-22 07:36 51°28.452 2°52.258 5.2 284 6.2 101990 29
2010-04-22 07:37 51°28.693 2°52.258 7.6 285 6.2 101980 30
2010-04-22 07:38 51°28.934 2°52.259 5.9 284 6.1 101990 30
2010-04-22 07:39 51°29.176 2°52.26 6.2 284 6.1 101980 31
2010-04-22 07:40 51°29.421 2°52.26 6.5 285 6.2 101990 30
2010-04-22 07:41 51°29.666 2°52.257 7.2 285 6.2 101980 32
2010-04-22 07:42 51°29.912 2°52.256 7.1 282 6.2 101990 31
2010-04-22 07:43 51°30.155 2°52.255 7.7 334 6.2 101990 30
2010-04-22 07:44 51°30.401 2°52.252 7.7 285 6.2 101990 30
2010-04-22 07:45 51°30.65 2°52.25 8.3 286 6.2 101980 31
2010-04-22 07:46 51°30.894 2°52.248 6.8 287 6.2 101980 31
2010-04-22 07:47 51°31.059 2°52.256 4.3 283 6.2 101980 30
2010-04-22 07:48 51°31.161 2°52.328 4.3 279 6.2 101990 29
2010-04-22 07:49 51°31.227 2°52.46 3.9 318 6.2 101990 31
2010-04-22 07:50 51°31.293 2°52.568 2.5 330 6.2 101990 30
2010-04-22 07:51 51°31.343 2°52.62 0.1 283 6.2 102000 30
2010-04-22 07:52 51°31.343 2°52.632 -999 6 6.2 101990 31
2010-04-22 07:53 51°31.336 2°52.629 -999 341 6.3 101990 30
2010-04-22 07:54 51°31.336 2°52.629 -999 282 6.4 101990 31
2010-04-22 07:55 51°31.34 2°52.63 -999 335 6.4 102000 30
2010-04-22 07:56 51°31.347 2°52.633 -999 354 6.4 102000 29
2010-04-22 07:57 51°31.355 2°52.638 -999 354 6.4 101990 31
2010-04-22 07:58 51°31.366 2°52.642 -999 23 6.5 102000 30
2010-04-22 07:59 51°31.379 2°52.645 -999 270 6.5 101990 31
2010-04-22 08:00 51°31.39 2°52.655 -999 269 6.6 102000 31
2010-04-22 08:01 51°31.387 2°52.671 -999 23 6.6 102000 31
2010-04-22 08:02 51°31.378 2°52.685 -999 267 6.6 101990 31
2010-04-22 08:03 51°31.37 2°52.691 -999 78 6.7 102000 31
2010-04-22 08:04 51°31.366 2°52.691 -999 33 6.7 102000 29
2010-04-22 08:05 51°31.367 2°52.688 -999 41 6.7 101990 30
2010-04-22 08:06 51°31.37 2°52.687 -999 28 6.7 102000 31
2010-04-22 08:07 51°31.374 2°52.688 -999 36 6.7 101990 31
2010-04-22 08:08 51°31.379 2°52.688 -999 31 6.7 101990 31
2010-04-22 08:09 51°31.38 2°52.682 -999 37 6.7 102000 31
2010-04-22 08:10 51°31.38 2°52.675 -999 41 6.7 102000 31
2010-04-22 08:11 51°31.381 2°52.671 1 28 6.7 101990 31
2010-04-22 08:12 51°31.382 2°52.669 0.1 23 6.7 101990 31
2010-04-22 08:13 51°31.383 2°52.668 0.1 23 6.8 101990 32
2010-04-22 08:14 51°31.383 2°52.67 1.2 75 6.8 101990 31
2010-04-22 08:15 51°31.382 2°52.669 -999 25 6.9 101990 31
2010-04-22 08:16 51°31.381 2°52.67 1.3 25 7 101990 30
2010-04-22 08:17 51°31.381 2°52.67 1.7 26 7.1 101990 31
2010-04-22 08:18 51°31.383 2°52.671 1.4 21 7.1 101990 32
2010-04-22 08:19 51°31.383 2°52.672 0.2 21 7.2 101990 30
2010-04-22 08:20 51°31.382 2°52.672 2.4 21 7.3 101990 29
2010-04-22 08:21 51°31.381 2°52.671 1.8 78 7 101990 31
2010-04-22 08:22 51°31.382 2°52.671 1.6 25 6.9 101980 32
2010-04-22 08:23 51°31.381 2°52.673 1.6 22 6.8 101990 30
2010-04-22 08:24 51°31.382 2°52.672 1.4 25 6.7 101990 30
2010-04-22 08:25 51°31.381 2°52.674 1.1 27 6.7 101990 31
2010-04-22 08:26 51°31.382 2°52.675 1.2 26 6.7 101980 30
2010-04-22 08:27 51°31.381 2°52.677 1.4 25 6.6 101980 30
2010-04-22 08:28 51°31.381 2°52.677 2.2 26 6.7 101990 31
2010-04-22 08:29 51°31.38 2°52.678 2.3 21 6.6 101990 30
2010-04-22 08:30 51°31.379 2°52.679 2.2 77 6.6 101990 32
2010-04-22 08:31 51°31.377 2°52.68 1.7 26 6.5 101990 30
2010-04-22 08:32 51°31.376 2°52.681 0.1 22 6.5 102000 31
2010-04-22 08:33 51°31.376 2°52.68 -999 23 6.5 101990 30
2010-04-22 08:34 51°31.377 2°52.68 -999 23 6.5 101990 30
2010-04-22 08:35 51°31.38 2°52.679 -999 23 6.5 101980 31
2010-04-22 08:36 51°31.382 2°52.679 -999 23 6.7 101990 31
2010-04-22 08:37 51°31.382 2°52.676 -999 23 6.8 102000 31
2010-04-22 08:38 51°31.382 2°52.673 -999 23 6.7 101990 30
2010-04-22 08:39 51°31.381 2°52.671 -999 22 6.7 101990 31
2010-04-22 08:40 51°31.381 2°52.67 -999 23 6.7 101990 31
2010-04-22 08:41 51°31.383 2°52.669 0.1 18 6.6 101990 31
2010-04-22 08:42 51°31.383 2°52.671 -999 23 6.7 101980 31
2010-04-22 08:43 51°31.383 2°52.672 -999 23 6.8 101990 31
2010-04-22 08:44 51°31.374 2°52.665 -999 23 7 101990 29
2010-04-22 08:45 51°31.36 2°52.653 -999 23 7.2 101990 30
2010-04-22 08:46 51°31.35 2°52.644 -999 23 7.3 101990 30
2010-04-22 08:47 51°31.344 2°52.641 -999 23 7.3 101990 30
2010-04-22 08:48 51°31.317 2°52.661 2.2 27 7.4 101990 30
2010-04-22 08:49 51°31.344 2°52.829 5 331 7.4 101980 29
2010-04-22 08:50 51°31.515 2°53.064 7 333 7.1 101980 30
2010-04-22 08:51 51°31.701 2°53.325 6.3 332 6.9 101970 30
2010-04-22 08:53 51°32.061 2°53.84 7.9 333 6.8 101970 31
2010-04-22 08:55 51°32.419 2°54.356 7.5 332 6.7 101950 31
2010-04-22 08:56 51°32.607 2°54.618 7.2 336 6.7 101980 30
2010-04-22 08:57 51°32.823 2°54.815 6.6 338 6.6 101970 31
2010-04-22 08:58 51°33.038 2°55.012 6.7 333 6.5 101970 28
2010-04-22 08:59 51°33.239 2°55.223 6 332 6.6 101970 30
2010-04-22 09:00 51°33.302 2°55.465 4.2 302 6.6 101980 30
2010-04-22 09:01 51°33.277 2°55.635 3.4 304 6.6 101990 31
2010-04-22 09:02 51°33.239 2°55.718 1.5 301 6.6 101990 31
2010-04-22 09:03 51°33.222 2°55.776 -999 306 6.6 101970 31
2010-04-22 09:04 51°33.212 2°55.821 1.2 310 6.8 101980 30
2010-04-22 09:05 51°33.208 2°55.859 -999 306 6.8 101980 30
2010-04-22 09:06 51°33.207 2°55.891 -999 306 6.9 101980 30
2010-04-22 09:07 51°33.208 2°55.919 -999 306 7 101980 31
2010-04-22 09:08 51°33.21 2°55.945 -999 306 7 101970 31
2010-04-22 09:09 51°33.213 2°55.967 -999 306 7.1 101980 31
2010-04-22 09:10 51°33.216 2°55.989 -999 306 7.1 101990 31
2010-04-22 09:11 51°33.22 2°56.01 -999 306 7.2 101980 31
2010-04-22 09:12 51°33.224 2°56.029 -999 306 7.2 101980 31
2010-04-22 09:13 51°33.228 2°56.047 -999 306 7.2 101980 31
2010-04-22 09:14 51°33.234 2°56.063 -999 309 7.2 101990 30
2010-04-22 09:15 51°33.239 2°56.079 -999 54 7.3 101980 31
2010-04-22 09:16 51°33.241 2°56.096 -999 306 7.3 101980 31
2010-04-22 09:17 51°33.227 2°56.151 1.8 309 7.3 101990 31
2010-04-22 09:18 51°33.219 2°56.24 1.4 310 7.3 101980 31
2010-04-22 09:19 51°33.219 2°56.312 -999 306 7.3 101970 31
2010-04-22 09:20 51°33.223 2°56.372 0.7 308 7.3 101970 31
2010-04-22 09:21 51°33.229 2°56.423 -999 306 7.3 101970 31
2010-04-22 09:22 51°33.235 2°56.466 -999 306 7.3 101980 30
2010-04-22 09:23 51°33.24 2°56.503 -999 306 7.3 101970 31
2010-04-22 09:24 51°33.244 2°56.535 -999 306 7.3 101980 31
2010-04-22 09:25 51°33.249 2°56.564 0.6 304 7.4 101980 31
2010-04-22 09:26 51°33.254 2°56.59 0.1 306 7.4 101980 31
2010-04-22 09:27 51°33.261 2°56.614 -999 306 7.4 101980 31
2010-04-22 09:28 51°33.27 2°56.636 -999 306 7.4 101970 32
2010-04-22 09:29 51°33.281 2°56.657 0.1 301 7.5 101970 31
2010-04-22 09:30 51°33.292 2°56.677 2 304 7.5 101980 32
2010-04-22 09:31 51°33.302 2°56.697 1.9 304 7.6 101970 31
2010-04-22 09:32 51°33.314 2°56.715 1.3 336 7.5 101980 30
2010-04-22 09:33 51°33.324 2°56.729 1.2 301 7.4 101970 31
2010-04-22 09:34 51°33.334 2°56.735 -999 306 7.3 101980 31
2010-04-22 09:35 51°33.343 2°56.735 -999 306 7.3 101980 31
2010-04-22 09:36 51°33.351 2°56.736 -999 306 7.4 101980 31
2010-04-22 09:37 51°33.361 2°56.741 -999 306 7.4 101980 31
2010-04-22 09:38 51°33.37 2°56.748 -999 306 7.4 101990 30
2010-04-22 09:39 51°33.378 2°56.76 -999 306 7.4 101980 31
2010-04-22 09:40 51°33.387 2°56.773 -999 306 7.5 101980 32
2010-04-22 09:41 51°33.394 2°56.787 -999 306 7.5 101980 32
2010-04-22 09:42 51°33.401 2°56.802 -999 306 7.5 101980 32
2010-04-22 09:43 51°33.409 2°56.818 -999 306 7.6 101980 31
2010-04-22 09:44 51°33.417 2°56.835 -999 331 7.6 101990 31
2010-04-22 09:45 51°33.425 2°56.851 -999 307 7.6 101980 31
2010-04-22 09:46 51°33.434 2°56.865 -999 353 7.6 101980 30
2010-04-22 09:47 51°33.441 2°56.872 -999 332 7.7 101980 31
2010-04-22 09:48 51°33.45 2°56.874 -999 306 7.8 101970 31
2010-04-22 09:49 51°33.459 2°56.879 -999 306 8.1 101980 31
2010-04-22 09:50 51°33.467 2°56.886 -999 306 8.4 101980 31
2010-04-22 09:51 51°33.474 2°56.895 -999 306 8.7 101960 31
2010-04-22 09:52 51°33.48 2°56.906 -999 53 9 101970 31
2010-04-22 09:53 51°33.484 2°56.92 -999 55 9.1 101970 30
2010-04-22 09:54 51°33.49 2°56.929 -999 54 9 101970 31
2010-04-22 09:55 51°33.499 2°56.934 -999 54 8.9 101980 30
2010-04-22 09:56 51°33.51 2°56.937 -999 55 8.7 101970 30
2010-04-22 09:57 51°33.519 2°56.943 -999 54 8.8 101970 30
2010-04-22 09:58 51°33.526 2°56.95 -999 51 8.9 101970 31
2010-04-22 09:59 51°33.533 2°56.959 -999 310 9 101970 31
2010-04-22 10:00 51°33.539 2°56.97 -999 54 9.1 101970 31
2010-04-22 10:01 51°33.544 2°56.982 -999 54 9.3 101960 31
2010-04-22 10:02 51°33.55 2°56.996 -999 54 9.5 101960 31
2010-04-22 10:03 51°33.554 2°57.01 -999 54 9.7 101950 30
2010-04-22 10:04 51°33.557 2°57.024 -999 53 9.8 101960 31
2010-04-22 10:05 51°33.56 2°57.036 -999 54 9.8 101960 30
2010-04-22 10:06 51°33.563 2°57.05 -999 54 9.6 101960 30
2010-04-22 10:07 51°33.565 2°57.064 -999 304 9.5 101960 31
2010-04-22 10:08 51°33.564 2°57.076 -999 58 9.5 101960 31
2010-04-22 10:09 51°33.565 2°57.089 -999 306 9.5 101950 30
2010-04-22 10:10 51°33.545 2°57.11 -999 306 9.5 101960 30
2010-04-22 10:11 51°33.453 2°57.043 2.8 339 9.4 101960 30
2010-04-22 10:12 51°33.317 2°56.867 4.5 335 8.8 101960 32
2010-04-22 10:13 51°33.195 2°56.642 5 334 8.2 101960 32
2010-04-22 10:14 51°33.116 2°56.47 2 332 7.8 101950 31
2010-04-22 10:15 51°33.081 2°56.377 -999 338 7.7 101960 32
2010-04-22 10:16 51°33.071 2°56.31 -999 344 7.8 101960 32
2010-04-22 10:17 51°33.071 2°56.273 -999 26 7.8 101960 32
2010-04-22 10:18 51°33.073 2°56.362 1.6 50 7.8 101960 32
2010-04-22 10:19 51°33.065 2°56.495 0.2 56 7.6 101950 31
2010-04-22 10:20 51°33.054 2°56.584 -999 54 7.4 101950 32
2010-04-22 10:21 51°33.041 2°56.646 -999 44 7.4 101950 32
2010-04-22 10:22 51°33.029 2°56.692 -999 30 7.4 101950 32
2010-04-22 10:23 51°33.02 2°56.732 -999 29 7.4 101950 32
2010-04-22 10:24 51°33.015 2°56.768 -999 17 7.6 101960 32
2010-04-22 10:25 51°33.013 2°56.801 -999 23 7.7 101960 32
2010-04-22 10:26 51°33.013 2°56.831 -999 20 7.7 101950 32
2010-04-22 10:27 51°33.017 2°56.856 -999 32 7.7 101950 32
2010-04-22 10:28 51°33.023 2°56.877 -999 24 7.7 101960 33
2010-04-22 10:29 51°33.027 2°56.896 -999 33 7.8 101950 32
2010-04-22 10:30 51°33.033 2°56.91 -999 54 7.8 101950 33
2010-04-22 10:31 51°33.038 2°56.922 -999 54 7.7 101950 32
2010-04-22 10:32 51°33.042 2°56.929 -999 44 7.6 101950 33
2010-04-22 10:33 51°33.045 2°56.935 -999 54 7.5 101950 33
2010-04-22 10:34 51°33.047 2°56.94 -999 35 7.5 101950 32
2010-04-22 10:35 51°33.048 2°56.945 -999 54 7.5 101950 32
2010-04-22 10:36 51°33.047 2°56.948 -999 54 7.5 101960 32
2010-04-22 10:37 51°33.047 2°56.949 -999 41 7.5 101950 32
2010-04-22 10:38 51°33.047 2°56.947 -999 37 7.5 101940 33
2010-04-22 10:39 51°33.047 2°56.944 -999 55 7.5 101950 33
2010-04-22 10:40 51°33.044 2°56.929 -999 4 7.5 101940 33
2010-04-22 10:41 51°33.03 2°56.792 2.6 344 7.4 101940 32
2010-04-22 10:42 51°33.012 2°56.563 3.2 340 7.2 101940 32
2010-04-22 10:43 51°33.011 2°56.307 4 342 7.1 101940 33
2010-04-22 10:44 51°33.051 2°56.063 3.7 338 7 101930 32
2010-04-22 10:45 51°33.069 2°55.913 1.6 1 7 101930 32
2010-04-22 10:46 51°33.061 2°55.873 0.1 42 7 101930 33
2010-04-22 10:47 51°33.056 2°55.861 -999 54 7 101940 33
2010-04-22 10:48 51°33.048 2°55.854 -999 54 7.1 101940 33
2010-04-22 10:49 51°33.041 2°55.85 1.7 54 7.2 101940 33
2010-04-22 10:50 51°33.034 2°55.849 1.4 308 7.5 101940 31
2010-04-22 10:51 51°33.022 2°55.86 -999 306 7.6 101940 32
2010-04-22 10:52 51°33.013 2°55.881 1.4 303 7.7 101940 32
2010-04-22 10:53 51°33.014 2°55.909 1.7 307 7.9 101940 33
2010-04-22 10:54 51°33.023 2°55.934 1.9 331 7.9 101930 32
2010-04-22 10:55 51°33.038 2°55.952 1.3 332 7.8 101940 31
2010-04-22 10:56 51°33.058 2°55.964 0.1 325 7.8 101940 32
2010-04-22 10:57 51°33.079 2°55.97 2 335 7.8 101940 33
2010-04-22 10:58 51°33.099 2°55.963 1.4 344 7.9 101940 31
2010-04-22 10:59 51°33.112 2°55.944 1 355 7.6 101930 31
2010-04-22 11:00 51°33.121 2°55.908 -999 351 7.4 101930 32
2010-04-22 11:02 51°33.143 2°55.851 -999 342 7.2 101940 33
2010-04-22 11:03 51°33.159 2°55.839 -999 333 7.2 101930 33
2010-04-22 11:04 51°33.173 2°55.843 1.3 325 7.3 101930 33
2010-04-22 11:05 51°33.179 2°55.855 -999 306 7.4 101940 31
2010-04-22 11:06 51°33.18 2°55.865 -999 306 7.5 101940 33
2010-04-22 11:07 51°33.178 2°55.872 0.1 254 7.7 101940 33
2010-04-22 11:08 51°33.176 2°55.878 -999 246 7.9 101940 31
2010-04-22 11:09 51°33.172 2°55.882 -999 301 8.2 101930 33
2010-04-22 11:10 51°33.168 2°55.884 -999 254 8.4 101940 32
2010-04-22 11:11 51°33.164 2°55.885 -999 306 8.5 101930 32
2010-04-22 11:12 51°33.16 2°55.885 -999 306 8.6 101930 32
2010-04-22 11:13 51°33.155 2°55.884 -999 35 8.7 101930 32
2010-04-22 11:14 51°33.15 2°55.883 -999 306 8.7 101940 31
2010-04-22 11:15 51°33.145 2°55.881 -999 306 8.8 101940 31
2010-04-22 11:16 51°33.14 2°55.879 -999 245 8.8 101930 30
2010-04-22 11:17 51°33.133 2°55.875 -999 249 8.9 101940 31
2010-04-22 11:18 51°33.126 2°55.871 2.4 306 9 101940 31
2010-04-22 11:19 51°33.119 2°55.865 1.3 248 9 101940 31
2010-04-22 11:20 51°33.112 2°55.86 -999 306 9 101940 30
2010-04-22 11:21 51°33.103 2°55.853 -999 306 9 101930 31
2010-04-22 11:22 51°33.095 2°55.844 -999 248 9.1 101930 31
2010-04-22 11:23 51°33.087 2°55.835 -999 306 9.2 101930 31
2010-04-22 11:24 51°33.078 2°55.824 -999 306 9.2 101930 30
2010-04-22 11:25 51°33.07 2°55.815 -999 256 9.2 101930 31
2010-04-22 11:26 51°33.062 2°55.805 -999 306 9.3 101940 31
2010-04-22 11:27 51°33.053 2°55.797 -999 306 9.4 101940 31
2010-04-22 11:28 51°33.044 2°55.788 -999 259 9.5 101940 31
2010-04-22 11:29 51°33.035 2°55.779 -999 306 9.5 101940 31
2010-04-22 11:30 51°33.026 2°55.802 0.1 306 9.3 101930 32
2010-04-22 11:31 51°33.041 2°55.839 2.9 328 9.2 101930 32
2010-04-22 11:32 51°33.123 2°55.873 4.9 330 8.9 101930 32
2010-04-22 11:33 51°33.248 2°55.889 4.3 331 8.4 101920 32
2010-04-22 11:34 51°33.305 2°55.865 3.3 335 8.2 101920 34
2010-04-22 11:35 51°33.327 2°55.831 1.6 344 8 101920 34
2010-04-22 11:36 51°33.34 2°55.801 1.3 357 7.7 101930 33
2010-04-22 11:37 51°33.343 2°55.78 -999 -999 7.5 101930 34
2010-04-22 11:38 51°33.341 2°55.766 0.1 16 7.4 101930 34
2010-04-22 11:39 51°33.331 2°55.763 -999 19 7.4 101930 34
2010-04-22 11:40 51°33.321 2°55.765 -999 23 7.4 101940 34
2010-04-22 11:41 51°33.312 2°55.766 -999 26 7.4 101920 34
2010-04-22 11:42 51°33.302 2°55.766 0.1 29 7.4 101920 34
2010-04-22 11:43 51°33.294 2°55.765 1.6 25 7.4 101910 34
2010-04-22 11:44 51°33.285 2°55.763 1.5 29 7.4 101920 33
2010-04-22 11:45 51°33.275 2°55.761 -999 35 7.4 101920 34
2010-04-22 11:46 51°33.266 2°55.756 2 37 7.4 101930 34
2010-04-22 11:47 51°33.258 2°55.751 1.1 40 7.4 101920 34
2010-04-22 11:48 51°33.25 2°55.746 0.1 35 7.3 101920 34
2010-04-22 11:49 51°33.24 2°55.74 -999 41 7.3 101920 34
2010-04-22 11:50 51°33.231 2°55.735 -999 30 7.3 101930 34
2010-04-22 11:51 51°33.222 2°55.728 -999 39 7.3 101920 34
2010-04-22 11:52 51°33.212 2°55.721 0.1 44 7.4 101920 34
2010-04-22 11:53 51°33.207 2°55.721 -999 44 7.4 101930 34
2010-04-22 11:54 51°33.205 2°55.724 0.9 57 7.3 101920 34
2010-04-22 11:55 51°33.184 2°55.671 2.2 7 7.2 101930 34
2010-04-22 11:56 51°33.216 2°55.592 3.7 338 7.1 101920 35
2010-04-22 11:57 51°33.268 2°55.621 2.4 309 7.1 101920 36
2010-04-22 11:58 51°33.29 2°55.67 1.8 309 7.2 101920 35
2010-04-22 11:59 51°33.302 2°55.715 2.5 309 7.3 101920 34
2010-04-22 12:00 51°33.309 2°55.749 2.1 307 7.5 101920 35
2010-04-22 12:01 51°33.315 2°55.776 2 303 7.5 101910 33
2010-04-22 12:02 51°33.318 2°55.794 -999 306 7.6 101910 34
2010-04-22 12:03 51°33.329 2°55.816 3.1 311 7.6 101920 33
2010-04-22 12:04 51°33.35 2°55.86 2.5 304 7.6 101910 35
2010-04-22 12:05 51°33.368 2°55.909 2 304 7.6 101910 35
2010-04-22 12:06 51°33.378 2°55.95 3.2 303 7.6 101920 33
2010-04-22 12:07 51°33.382 2°55.979 2 311 7.7 101920 34
2010-04-22 12:08 51°33.382 2°55.998 1.9 307 7.8 101920 33
2010-04-22 12:09 51°33.378 2°56.011 2.4 308 7.9 101920 33
2010-04-22 12:10 51°33.371 2°56.018 2.3 301 7.9 101920 33
2010-04-22 12:11 51°33.363 2°56.022 1.5 300 7.9 101910 33
2010-04-22 12:12 51°33.353 2°56.038 1.5 308 7.9 101920 33
2010-04-22 12:13 51°33.334 2°56.059 -999 306 8 101910 33
2010-04-22 12:14 51°33.303 2°56.072 -999 54 8 101920 33
2010-04-22 12:15 51°33.267 2°56.076 -999 311 8 101920 33
2010-04-22 12:16 51°33.237 2°56.093 0.1 306 8.1 101920 33
2010-04-22 12:17 51°33.218 2°56.12 1.6 307 8.3 101910 35
2010-04-22 12:18 51°33.204 2°56.139 1.6 307 8.4 101910 33
2010-04-22 12:19 51°33.191 2°56.151 2 307 8.5 101910 34
2010-04-22 12:20 51°33.177 2°56.158 1.2 301 8.5 101910 33
2010-04-22 12:21 51°33.163 2°56.162 2.1 308 8.5 101900 34
2010-04-22 12:22 51°33.149 2°56.162 2.4 304 8.6 101910 33
2010-04-22 12:23 51°33.133 2°56.161 2.3 308 8.5 101900 33
2010-04-22 12:24 51°33.117 2°56.157 1.7 307 8.5 101900 33
2010-04-22 12:25 51°33.1 2°56.151 1.8 309 8.4 101900 32
2010-04-22 12:26 51°33.084 2°56.144 2.3 309 8.4 101900 33
2010-04-22 12:27 51°33.066 2°56.136 2.1 305 8.3 101900 33
2010-04-22 12:28 51°33.05 2°56.128 2.1 309 8.3 101910 33
2010-04-22 12:29 51°33.032 2°56.118 2.3 306 8.3 101900 33
2010-04-22 12:30 51°33.015 2°56.107 2.3 302 8.2 101900 34
2010-04-22 12:31 51°32.996 2°56.096 2.5 310 8.2 101900 32
2010-04-22 12:32 51°32.977 2°56.085 2 309 8.2 101900 33
2010-04-22 12:33 51°32.959 2°56.074 2.3 301 8.2 101900 34
2010-04-22 12:34 51°32.944 2°56.08 2.6 303 8.2 101890 32
2010-04-22 12:35 51°32.946 2°56.091 1.7 325 8.1 101900 33
2010-04-22 12:36 51°33.019 2°56.079 5.5 331 7.9 101890 33
2010-04-22 12:37 51°33.169 2°56.043 7 326 7.8 101880 34
2010-04-22 12:38 51°33.334 2°56.118 7.4 333 7.7 101880 35
2010-04-22 12:39 51°33.477 2°56.113 4.2 337 7.6 101880 33
2010-04-22 12:40 51°33.536 2°56.088 3.5 336 7.5 101890 35
2010-04-22 12:41 51°33.565 2°56.079 2.1 336 7.5 101900 34
2010-04-22 12:42 51°33.579 2°56.075 1.8 301 7.4 101900 34
2010-04-22 12:43 51°33.584 2°56.072 1.7 303 7.5 101900 34
2010-04-22 12:44 51°33.584 2°56.067 1.7 320 7.5 101900 33
2010-04-22 12:45 51°33.579 2°56.061 2.1 330 7.7 101900 33
2010-04-22 12:46 51°33.572 2°56.052 1.4 301 7.8 101890 33
2010-04-22 12:47 51°33.563 2°56.041 1.6 325 7.9 101900 33
2010-04-22 12:48 51°33.553 2°56.03 1.2 330 8 101900 33
2010-04-22 12:49 51°33.54 2°56.017 1.3 327 8 101900 33
2010-04-22 12:50 51°33.525 2°56.004 1.9 300 8.1 101900 33
2010-04-22 12:51 51°33.509 2°55.989 1.6 301 8.1 101900 33
2010-04-22 12:52 51°33.491 2°55.973 1.6 310 8.1 101900 33
2010-04-22 12:53 51°33.474 2°55.955 2 310 8.1 101890 33
2010-04-22 12:54 51°33.455 2°55.937 2.4 307 8.1 101900 33
2010-04-22 12:55 51°33.435 2°55.917 1.9 308 8.2 101900 33
2010-04-22 12:56 51°33.416 2°55.897 1.6 304 8.2 101900 33
2010-04-22 12:57 51°33.396 2°55.877 1.6 306 8.2 101900 32
2010-04-22 12:58 51°33.376 2°55.857 1.4 306 8.2 101900 33
2010-04-22 12:59 51°33.356 2°55.837 0.1 306 8.2 101900 32
2010-04-22 13:00 51°33.337 2°55.817 2 303 8.1 101890 32
2010-04-22 13:01 51°33.316 2°55.798 -999 59 8.1 101890 33
2010-04-22 13:02 51°33.295 2°55.78 -999 306 8.1 101890 32
2010-04-22 13:03 51°33.261 2°55.836 2.6 301 8.1 101890 33
2010-04-22 13:04 51°33.247 2°55.985 4.3 324 8 101880 32
2010-04-22 13:05 51°33.261 2°56.202 4.4 303 7.9 101890 33
2010-04-22 13:06 51°33.302 2°56.421 5.3 307 7.8 101880 34
2010-04-22 13:07 51°33.353 2°56.544 3.3 322 7.8 101900 33
2010-04-22 13:08 51°33.39 2°56.569 2.6 327 7.8 101890 33
2010-04-22 13:09 51°33.411 2°56.563 2.1 328 7.9 101890 32
2010-04-22 13:10 51°33.421 2°56.549 2 337 7.9 101880 33
2010-04-22 13:11 51°33.422 2°56.531 2 334 7.9 101880 34
2010-04-22 13:12 51°33.417 2°56.512 2.5 332 7.8 101880 34
2010-04-22 13:13 51°33.408 2°56.493 1.8 336 7.8 101880 34
2010-04-22 13:14 51°33.397 2°56.474 1.5 332 7.8 101870 32
2010-04-22 13:15 51°33.383 2°56.453 1.5 330 7.7 101880 34
2010-04-22 13:16 51°33.366 2°56.433 -999 332 7.8 101880 33
2010-04-22 13:17 51°33.348 2°56.413 -999 339 7.9 101870 33
2010-04-22 13:18 51°33.328 2°56.393 1.8 329 7.9 101870 33
2010-04-22 13:19 51°33.308 2°56.372 0.1 311 8 101880 33
2010-04-22 13:20 51°33.285 2°56.352 1.9 306 8.1 101880 33
2010-04-22 13:21 51°33.261 2°56.333 1.6 304 8.1 101870 33
2010-04-22 13:22 51°33.236 2°56.312 1.6 308 8.1 101880 33
2010-04-22 13:23 51°33.21 2°56.29 0.8 308 8.2 101870 33
2010-04-22 13:24 51°33.183 2°56.266 1.4 307 8.2 101870 33
2010-04-22 13:25 51°33.156 2°56.24 1.3 301 8.4 101870 33
2010-04-22 13:26 51°33.131 2°56.212 1.5 303 8.4 101870 33
2010-04-22 13:27 51°33.105 2°56.184 2.3 306 8.5 101870 33
2010-04-22 13:28 51°33.08 2°56.156 1.4 303 8.6 101870 32
2010-04-22 13:29 51°33.058 2°56.128 2 307 8.6 101870 33
2010-04-22 13:30 51°33.035 2°56.102 1.2 310 8.5 101870 31
2010-04-22 13:31 51°33.012 2°56.08 1.5 306 8.4 101870 32
2010-04-22 13:32 51°32.988 2°56.103 2.6 307 8.3 101870 33
2010-04-22 13:33 51°32.975 2°56.136 2.2 302 8.2 101860 32
2010-04-22 13:34 51°32.968 2°56.166 1.9 302 8.1 101870 32
2010-04-22 13:35 51°32.965 2°56.195 1.7 307 8.1 101870 32
2010-04-22 13:36 51°32.968 2°56.221 1.8 309 8.1 101860 31
2010-04-22 13:37 51°32.972 2°56.243 2.4 306 8.1 101860 31
2010-04-22 13:38 51°32.979 2°56.262 2.7 324 8.1 101860 33
2010-04-22 13:39 51°32.988 2°56.273 2.3 327 8 101860 32
2010-04-22 13:40 51°33.008 2°56.279 2.3 323 7.9 101860 32
2010-04-22 13:41 51°33.042 2°56.272 4.5 333 7.9 101850 33
2010-04-22 13:42 51°33.135 2°56.18 6.4 338 7.9 101850 34
2010-04-22 13:43 51°33.236 2°55.956 7.2 338 7.8 101840 33
2010-04-22 13:44 51°33.284 2°55.612 6.4 339 7.6 101840 33
2010-04-22 13:45 51°33.304 2°55.248 6 342 7.6 101840 33
2010-04-22 13:46 51°33.273 2°54.879 5.1 345 7.5 101850 33
2010-04-22 13:47 51°33.08 2°54.701 2.8 337 7.4 101850 33
2010-04-22 13:48 51°32.845 2°54.638 3.7 304 7.4 101850 33
2010-04-22 13:49 51°32.609 2°54.583 3.4 326 7.5 101850 33
2010-04-22 13:50 51°32.364 2°54.527 3.6 328 7.6 101840 33
2010-04-22 13:51 51°32.115 2°54.468 2.9 329 7.7 101840 33
2010-04-22 13:52 51°31.865 2°54.412 3.6 332 7.7 101840 32
2010-04-22 13:53 51°31.617 2°54.358 2.7 341 7.7 101830 33
2010-04-22 13:54 51°31.368 2°54.3 3.1 331 7.8 101830 34
2010-04-22 13:55 51°31.118 2°54.244 2.7 328 7.8 101830 33
2010-04-22 13:56 51°30.868 2°54.192 3.1 331 7.8 101830 34
2010-04-22 13:57 51°30.619 2°54.135 2.7 342 7.7 101830 32
2010-04-22 13:58 51°30.375 2°54.077 1.9 331 7.7 101820 32
2010-04-22 13:59 51°30.141 2°54.004 2.2 339 7.7 101820 33
2010-04-22 14:00 51°29.891 2°53.868 3.7 346 7.7 101820 34
2010-04-22 14:01 51°29.659 2°53.7 3.5 344 7.6 101820 34
2010-04-22 14:02 51°29.429 2°53.532 4.2 350 7.6 101820 35
2010-04-22 14:03 51°29.213 2°53.321 2.3 346 7.5 101820 35
2010-04-22 14:04 51°28.978 2°53.18 3.2 329 7.4 101820 35
2010-04-22 14:05 51°28.728 2°53.145 2.4 326 7.5 101820 34
2010-04-22 14:06 51°28.48 2°53.123 2.1 328 7.6 101820 33
2010-04-22 14:07 51°28.231 2°53.093 2.5 323 7.7 101820 32
2010-04-22 14:08 51°27.981 2°53.063 1.8 325 7.7 101820 34
2010-04-22 14:09 51°27.731 2°53.034 2.3 328 7.8 101820 33
2010-04-22 14:10 51°27.481 2°53.006 2.8 323 7.8 101820 35
2010-04-22 14:11 51°27.233 2°52.975 2.6 318 7.9 101810 34
2010-04-22 14:12 51°26.983 2°52.94 2.3 33 7.9 101810 34
2010-04-22 14:13 51°26.733 2°52.908 3.2 325 7.9 101810 33
2010-04-22 14:14 51°26.483 2°52.873 1.7 329 7.9 101820 33
2010-04-22 14:15 51°26.231 2°52.833 2.4 321 7.9 101820 33
2010-04-22 14:16 51°25.979 2°52.794 2.2 323 7.9 101810 33
2010-04-22 14:17 51°25.729 2°52.755 2.7 323 7.9 101810 32
2010-04-22 14:18 51°25.478 2°52.713 2.6 320 7.9 101810 35
2010-04-22 14:19 51°25.227 2°52.673 2.1 304 8 101800 34
2010-04-22 14:20 51°24.979 2°52.638 2.3 39 7.9 101800 34
2010-04-22 14:21 51°24.732 2°52.604 2.4 307 8 101800 33
2010-04-22 14:22 51°24.484 2°52.58 3.1 315 8 101800 34
2010-04-22 14:23 51°24.242 2°52.614 2.6 31 8 101790 34
2010-04-22 14:24 51°23.997 2°52.657 2.8 30 8 101790 33
2010-04-22 14:25 51°23.753 2°52.706 3.7 32 8 101790 33
2010-04-22 14:26 51°23.509 2°52.745 3.4 32 7.9 101780 33
2010-04-22 14:27 51°23.262 2°52.777 2.8 39 7.8 101790 34
2010-04-22 14:28 51°23.014 2°52.811 2.9 231 7.9 101790 33
2010-04-22 14:29 51°22.767 2°52.848 2.7 31 7.9 101790 34
2010-04-22 14:30 51°22.518 2°52.846 1.4 309 7.9 101790 32
2010-04-22 14:31 51°22.271 2°52.81 1.5 37 8 101790 34
2010-04-22 14:32 51°22.028 2°52.766 1.4 325 8.1 101790 34
2010-04-22 14:33 51°21.783 2°52.723 2 325 8.1 101790 33
2010-04-22 14:34 51°21.54 2°52.686 1.8 326 8.2 101790 34
2010-04-22 14:35 51°21.296 2°52.654 1.3 323 8.3 101780 33
2010-04-22 14:36 51°21.05 2°52.621 1.6 31 8.2 101790 35
2010-04-22 14:37 51°20.803 2°52.586 -999 306 8.3 101780 33
2010-04-22 14:38 51°20.557 2°52.554 1.2 40 8.4 101780 34
2010-04-22 14:39 51°20.31 2°52.52 1.4 306 8.5 101780 33
2010-04-22 14:40 51°20.062 2°52.486 1.6 238 8.6 101770 35
2010-04-22 14:41 51°19.814 2°52.455 2.3 33 8.6 101770 34
2010-04-22 14:42 51°19.566 2°52.419 2.1 33 8.6 101770 34
2010-04-22 14:43 51°19.32 2°52.386 1.8 31 8.5 101770 33
2010-04-22 14:44 51°19.074 2°52.352 2.2 239 8.5 101770 33
2010-04-22 14:45 51°18.828 2°52.32 1 34 8.4 101770 33
2010-04-22 14:46 51°18.581 2°52.292 -999 317 8.5 101770 33
2010-04-22 14:47 51°18.338 2°52.264 2.2 244 8.5 101770 33
2010-04-22 14:48 51°18.09 2°52.237 1.1 301 8.6 101760 34
2010-04-22 14:49 51°17.845 2°52.211 2.3 304 8.7 101760 33
2010-04-22 14:50 51°17.599 2°52.194 2.2 302 8.7 101760 34
2010-04-22 14:51 51°17.353 2°52.208 2.4 303 8.6 101750 35
2010-04-22 14:52 51°17.114 2°52.292 4.1 308 8.5 101740 33
2010-04-22 14:53 51°16.892 2°52.424 4.6 302 8.4 101750 33
2010-04-22 14:54 51°16.683 2°52.61 6.3 302 8.3 101740 34
2010-04-22 14:55 51°16.472 2°52.788 4.8 305 8.2 101730 34
2010-04-22 14:56 51°16.265 2°52.968 6.5 306 8.2 101730 35
2010-04-22 14:57 51°16.056 2°53.142 4.5 305 8.1 101730 34
2010-04-22 14:58 51°15.854 2°53.333 7.2 303 8.1 101730 34
2010-04-22 14:59 51°15.673 2°53.563 6.7 302 8 101730 35
2010-04-22 15:00 51°15.502 2°53.804 7.6 309 8 101720 34
2010-04-22 15:01 51°15.331 2°54.046 6.1 309 7.9 101720 35
2010-04-22 15:02 51°15.155 2°54.285 6.9 304 7.9 101710 34
2010-04-22 15:03 51°14.976 2°54.505 6.6 307 7.9 101710 36
2010-04-22 15:04 51°14.783 2°54.709 6.5 303 7.9 101720 35
2010-04-22 15:05 51°14.596 2°54.899 5.4 302 7.9 101710 34
2010-04-22 15:06 51°14.424 2°55.094 5.4 301 8 101720 33
2010-04-22 15:07 51°14.272 2°55.273 4.8 302 8 101720 34
2010-04-22 15:08 51°14.157 2°55.383 1.3 302 8.1 101730 36
2010-04-22 15:09 51°14.065 2°55.457 2.8 307 8.1 101730 35
2010-04-22 15:10 51°13.947 2°55.542 3.1 305 8.1 101730 34
2010-04-22 15:11 51°13.829 2°55.633 2.1 308 8.1 101720 34
2010-04-22 15:12 51°13.769 2°55.692 3.5 21 8.1 101720 34
2010-04-22 15:13 51°13.769 2°55.692 5.6 310 8 101730 33
2010-04-22 15:14 51°13.665 2°55.946 3.4 301 8.1 101710 34